Wind_Speed
21 21 22 22 22 23 24 24 25 25 26 27 27 27 28 28 27 27 27 27 27 26 25 25 26 28 31 35 38 40 41 42 43 43 44 46 46 45 44 44 43 42 42 41 41 40 38 38 38 37 35 34 32 30 28 25 23 20 19 16 12 11 11 11 10 8 8 5 4 4 3 6 10 13 14 16 18 18 17 16 15 15 15 17 19 19 17 16
22 23 24 24 25 25 26 27 27 27 28 29 30 30 30 30 30 30 30 30 30 29 29 28 28 29 30 33 36 39 42 43 43 44 46 47 47 46 45 44 44 44 43 43 43 43 42 41 40 38 37 35 34 32 29 27 22 19 19 17 15 13 11 11 9 10 8 6 5 4 1 5 10 11 12 14 16 18 18 17 16 14 14 15 17 19 18 16
24 25 25 26 27 27 28 28 29 30 30 31 31 32 32 32 31 31 32 32 32 32 32 31 31 30 31 32 35 38 41 43 44 45 47 48 48 47 46 45 46 46 45 45 45 46 44 42 40 39 38 37 36 33 31 29 25 23 22 18 18 17 14 13 10 10 9 8 6 4 2 3 8 9 10 12 14 17 18 18 17 14 14 15 16 18 18 17
26 27 27 28 28 29 29 30 30 31 32 33 33 33 33 33 33 33 33 33 34 34 34 34 34 33 33 33 35 37 40 42 44 47 49 49 49 48 47 47 47 47 47 47 47 47 45 42 40 40 39 39 38 35 33 31 27 27 24 20 21 20 18 18 15 14 12 10 9 5 4 3 6 6 8 10 12 15 17 18 18 16 15 14 15 17 18 18
28 29 30 30 31 31 31 31 32 33 34 35 35 36 36 36 35 35 35 35 35 36 36 37 37 37 36 35 35 37 39 41 44 49 51 50 50 49 49 49 49 49 49 48 48 47 45 43 42 41 41 40 40 37 34 31 27 27 26 24 23 21 22 21 20 18 15 13 12 7 6 3 4 4 7 7 9 14 16 18 18 17 15 15 14 16 18 18
29 30 31 32 32 32 32 33 34 35 36 36 37 38 38 39 38 38 38 37 37 37 38 38 39 40 39 38 37 38 38 40 45 50 51 51 51 50 50 50 50 50 50 49 48 48 47 45 43 42 42 42 42 38 34 33 30 29 29 27 25 22 23 22 20 19 16 14 12 9 6 2 1 3 5 6 7 12 15 17 18 17 16 16 15 15 17 18
31 31 32 33 33 33 34 35 36 37 37 38 39 40 41 41 42 42 41 41 40 39 40 40 41 42 42 42 40 40 38 40 45 49 51 53 52 52 52 52 52 51 51 50 49 49 48 47 45 44 44 44 43 41 38 35 31 32 33 30 26 23 23 21 19 19 17 15 13 10 7 2 2 2 3 4 6 10 13 15 17 17 17 16 15 15 16 17
31 32 33 33 34 35 35 36 37 38 39 40 41 42 43 44 45 45 45 45 43 43 42 43 43 43 45 45 43 43 39 40 45 48 51 53 53 54 54 54 53 53 53 51 50 50 49 49 47 46 45 45 45 44 42 38 32 32 35 32 26 25 24 22 20 19 18 16 14 12 10 6 4 4 4 4 4 8 11 13 15 17 17 16 16 15 16 17
33 33 33 34 35 36 37 38 39 40 41 42 44 45 46 47 48 49 50 49 48 47 45 45 45 46 47 47 47 45 41 43 46 47 51 53 54 55 56 55 54 54 54 52 52 52 51 51 50 48 47 47 47 46 44 42 36 33 36 33 27 25 25 23 22 20 19 19 16 15 13 9 7 7 6 4 3 6 8 11 14 15 17 17 16 16 15 16
35 35 35 36 37 37 39 39 41 42 43 45 46 48 49 50 51 52 53 53 53 51 49 48 48 49 49 49 50 47 44 47 47 47 51 53 54 57 57 56 55 55 55 54 54 53 52 52 51 50 49 48 49 48 46 44 41 37 35 32 30 28 26 24 23 21 22 22 19 17 15 11 8 8 7 4 3 4 5 9 13 14 16 16 15 16 15 15
37 37 37 37 38 39 40 41 43 44 46 48 49 51 52 54 55 56 57 57 56 55 53 51 50 51 51 52 51 48 49 51 49 49 52 53 55 57 59 58 56 56 56 56 55 54 53 52 53 52 50 50 50 50 48 46 44 40 33 28 30 31 27 26 25 25 25 23 21 19 17 13 10 10 9 5 4 3 3 7 11 12 14 16 15 15 15 15
39 39 39 39 39 40 41 43 45 47 49 51 53 54 56 58 59 60 60 59 58 57 56 54 53 53 53 54 52 51 54 54 51 52 53 53 55 58 60 59 58 58 58 57 56 56 55 54 55 53 52 52 52 52 50 48 45 42 35 28 28 30 29 27 27 27 26 22 22 23 20 16 13 10 9 8 7 5 1 6 9 10 12 14 15 15 15 14
41 41 40 40 40 41 42 45 48 50 52 54 56 58 60 62 63 63 62 60 59 57 56 55 55 55 55 55 54 55 57 56 54 54 54 54 56 58 60 60 60 59 59 59 58 57 56 56 56 55 54 53 53 54 51 50 46 41 37 32 27 27 28 27 27 28 26 23 23 24 22 19 15 11 10 12 10 6 1 3 7 8 10 12 14 15 15 14
42 42 41 41 40 42 45 48 51 53 55 58 60 62 64 65 65 64 63 61 59 57 56 56 56 57 57 57 57 58 59 58 58 57 57 56 56 59 60 61 61 61 60 60 60 59 58 58 58 57 56 55 55 55 53 50 47 41 38 37 31 27 30 27 24 27 26 23 22 22 23 22 17 14 14 14 11 6 3 1 5 6 7 10 12 13 14 14
43 43 42 41 42 45 48 51 53 56 58 61 64 66 67 67 67 65 63 61 59 57 56 56 57 58 59 59 59 60 61 61 61 60 59 58 58 59 61 62 62 62 62 62 62 61 60 60 61 60 58 57 56 56 54 50 47 44 40 39 36 32 34 30 24 26 27 23 22 21 22 22 20 18 16 15 12 6 5 2 3 4 5 7 9 11 13 14
44 43 42 42 45 48 51 54 56 59 62 64 67 68 69 69 68 67 65 62 59 57 56 56 57 59 61 62 62 62 63 62 63 63 62 61 60 60 61 62 63 64 64 64 63 63 62 63 62 61 60 59 57 57 56 52 49 46 40 39 37 33 35 34 28 28 28 25 23 22 21 21 22 21 16 15 13 8 7 5 3 2 3 5 7 9 11 13
43 42 43 44 48 51 54 57 59 62 65 67 69 71 71 71 70 69 66 62 59 56 55 55 57 60 62 63 63 63 63 64 65 66 65 64 63 62 62 63 64 65 65 65 65 64 64 64 64 63 63 61 59 59 59 57 54 46 39 40 38 33 34 34 31 29 29 29 25 23 22 21 22 21 19 17 13 10 10 7 5 2 1 3 5 7 9 11
43 43 44 47 51 54 57 60 62 65 68 70 72 73 73 73 72 70 65 60 57 54 52 53 56 59 62 64 65 65 65 67 68 68 68 66 65 65 64 64 65 67 67 66 65 65 65 65 65 65 63 62 61 61 62 61 58 48 41 42 36 33 36 34 32 30 31 32 29 27 25 21 21 22 22 20 15 13 13 10 7 4 1 2 4 5 7 10
43 44 47 50 54 57 59 62 64 67 70 72 74 75 76 75 72 67 62 56 52 49 48 50 53 57 61 65 66 66 67 68 70 71 71 69 68 67 65 65 66 67 68 67 67 66 67 67 66 65 63 63 62 63 64 63 60 51 46 46 37 34 39 36 32 30 29 31 30 31 28 21 19 20 22 22 18 17 16 12 9 5 3 1 3 3 5 8
44 46 49 53 56 59 61 64 67 69 72 74 76 77 77 74 69 62 54 48 44 43 43 46 50 55 60 64 65 67 68 69 71 72 72 71 70 69 68 67 67 67 68 68 68 68 68 68 67 67 66 66 65 65 66 65 62 56 49 49 43 37 39 37 34 31 30 30 29 30 28 20 19 20 20 22 21 19 17 13 12 8 5 2 1 1 3 6
45 48 52 55 58 61 63 66 69 71 74 76 77 78 75 69 61 53 46 41 38 37 38 42 47 53 58 62 65 67 69 71 72 73 74 74 72 71 70 68 67 68 68 68 70 70 70 70 69 70 69 70 68 67 69 65 62 59 52 52 50 42 39 37 35 35 33 32 30 29 29 26 24 22 20 23 23 21 18 15 14 11 7 5 2 1 1 4
46 50 53 57 59 62 65 68 70 73 76 78 78 76 70 60 52 45 40 35 33 33 33 37 42 49 56 61 65 68 70 72 74 75 76 76 75 74 72 70 69 69 69 69 71 71 71 71 72 73 71 70 69 68 70 67 64 62 54 53 54 46 42 39 34 35 35 34 33 30 30 31 27 23 22 25 24 22 21 17 16 14 10 7 5 4 2 3
48 52 55 58 61 64 66 69 71 74 77 78 76 71 61 51 45 41 35 31 29 29 30 33 38 45 53 60 66 69 71 73 75 77 77 78 77 75 73 72 70 69 69 70 72 73 73 75 76 75 72 71 71 72 73 71 67 64 55 53 55 51 46 41 36 35 33 33 35 33 33 31 28 25 24 27 26 25 23 19 18 16 13 10 8 6 4 3
50 53 56 59 62 65 67 70 73 75 77 77 73 63 53 46 41 37 32 27 25 25 27 30 35 42 50 59 66 70 73 75 77 78 78 79 78 77 75 74 73 71 70 71 73 75 78 79 78 76 75 74 75 75 75 73 70 67 61 57 56 55 51 44 38 35 33 35 36 35 35 33 29 27 26 27 28 27 24 22 21 18 15 13 10 8 6 4
51 55 58 61 64 66 68 71 73 76 77 75 67 56 48 43 39 34 28 24 22 22 23 26 31 38 46 56 64 70 74 76 78 79 79 80 79 79 78 77 75 72 71 73 75 78 81 80 78 76 76 76 76 75 75 76 75 71 67 62 55 53 54 47 40 37 36 37 38 36 36 35 31 29 30 30 29 28 27 25 24 21 17 14 11 8 7 5
53 56 59 62 64 66 69 71 74 76 76 72 61 50 45 41 36 31 26 22 20 20 21 23 28 34 43 52 61 70 75 77 79 80 81 80 80 80 78 78 76 74 74 76 78 80 80 79 78 78 78 77 77 77 78 78 79 75 71 66 53 49 54 51 44 40 38 39 40 38 37 37 35 31 32 33 31 30 30 28 26 22 19 16 13 11 9 7
54 57 60 63 65 67 70 72 74 76 75 68 55 48 44 39 33 28 24 20 17 17 18 20 25 31 39 48 58 68 74 78 80 82 83 82 82 80 78 78 77 76 76 77 78 79 80 79 80 79 79 79 78 79 80 80 82 79 74 68 53 45 50 52 47 44 42 41 41 40 39 40 40 34 32 34 33 31 31 31 29 24 21 19 17 15 12 9
54 58 62 64 65 68 70 72 74 76 74 64 52 46 43 36 30 26 23 19 15 14 16 18 23 28 36 45 55 65 73 78 82 83 84 84 83 82 81 80 78 78 77 77 78 79 79 80 81 80 79 80 80 81 82 82 83 78 74 69 56 46 47 49 50 49 47 44 42 41 40 40 42 37 31 33 34 33 33 35 33 26 22 21 20 19 16 12
55 59 62 64 66 68 70 73 74 75 72 60 50 46 41 34 28 24 22 19 14 13 14 17 20 26 34 42 52 62 71 78 82 84 85 85 84 83 81 79 78 78 77 77 79 79 80 82 83 83 82 82 82 83 83 82 81 77 74 72 62 52 48 46 51 54 51 48 44 43 43 40 39 34 30 32 33 34 34 34 35 30 24 23 22 21 19 15
56 60 62 64 66 69 70 73 74 75 70 58 49 45 39 32 26 22 21 18 13 12 13 15 19 24 31 40 49 59 69 77 82 84 85 85 85 83 81 79 79 78 78 79 80 79 81 83 84 84 83 83 83 84 84 82 80 78 77 75 68 61 53 46 50 55 52 50 49 47 46 43 39 34 33 35 34 33 33 32 34 32 27 25 24 24 21 18
57 60 63 64 67 69 71 73 74 74 69 57 48 45 38 30 24 20 19 17 14 11 11 13 17 22 28 36 47 57 67 77 82 85 85 85 85 83 81 80 79 79 80 80 78 76 78 81 82 83 83 83 82 81 82 81 80 82 79 78 74 68 60 50 51 55 51 50 51 50 48 45 42 38 38 41 39 35 34 31 32 34 32 29 27 26 23 20
58 60 63 64 67 70 70 72 73 73 68 57 49 45 37 29 23 19 17 16 14 11 10 11 15 20 26 33 43 53 65 75 82 85 86 86 85 83 82 82 81 82 82 79 76 74 78 81 82 84 84 82 79 78 81 81 82 84 81 80 79 74 67 57 55 57 51 48 50 50 49 47 45 45 44 45 42 39 38 32 29 33 34 32 30 28 25 22
58 61 63 65 68 70 70 71 72 72 68 57 49 45 37 28 22 18 16 14 13 10 9 10 13 18 23 31 39 49 61 73 81 85 86 86 86 85 85 85 85 85 84 81 78 77 81 83 83 85 84 82 81 83 85 85 85 85 83 83 83 79 73 64 59 59 53 49 49 48 49 47 47 49 47 45 42 41 41 34 29 32 35 34 32 30 28 25
59 61 63 66 68 70 70 70 71 71 67 57 49 44 37 28 20 16 14 13 12 10 8 9 12 17 22 29 36 46 57 69 78 84 87 88 88 88 87 86 84 84 83 81 80 81 84 84 84 86 85 84 85 86 86 86 87 87 85 85 85 83 79 70 62 61 56 51 50 50 49 46 46 49 48 46 45 43 43 40 36 36 36 36 34 32 31 29
59 62 64 66 69 71 70 69 70 70 66 57 49 44 37 28 20 14 12 11 11 9 8 10 13 17 22 29 36 43 53 65 76 83 87 88 89 89 88 86 85 84 83 82 82 83 85 85 85 87 87 87 87 86 86 86 85 86 86 86 87 86 84 77 66 63 60 55 52 52 51 47 47 50 49 47 45 45 47 47 44 40 36 36 38 36 34 33
60 62 64 67 70 71 69 68 68 68 65 57 49 44 37 27 19 13 10 10 10 9 8 10 13 16 22 28 36 43 50 61 73 82 86 88 90 91 90 89 89 88 86 85 85 84 84 84 84 85 86 87 87 86 86 86 86 87 87 87 88 89 88 82 71 67 66 60 56 54 52 50 51 52 51 46 41 43 48 49 47 43 37 37 40 39 38 35
60 63 65 68 71 71 69 67 67 67 65 56 49 44 37 27 19 12 9 9 10 10 9 10 12 16 21 27 34 43 51 59 70 80 86 89 91 91 91 90 89 87 86 86 85 84 84 83 82 83 85 85 85 85 86 87 88 89 89 90 91 91 91 87 75 72 71 65 60 58 53 52 54 54 54 50 44 42 45 47 47 45 42 41 42 42 41 39
61 64 66 69 71 71 69 67 67 66 64 56 48 43 37 27 19 12 9 10 11 12 10 9 12 15 20 25 32 40 50 58 67 77 85 89 91 91 90 88 87 85 85 85 84 82 82 82 81 84 85 85 86 86 87 88 89 90 91 92 92 93 94 91 80 76 77 71 64 62 58 56 56 56 57 55 49 46 46 48 48 49 49 48 46 44 43 42
62 64 67 70 72 71 68 66 66 66 63 56 47 41 35 27 19 12 10 11 12 13 11 9 11 14 18 24 30 37 47 57 66 75 84 89 91 91 89 89 88 87 86 84 83 83 83 82 81 83 84 86 87 87 87 89 89 90 91 91 92 93 95 94 86 79 81 78 69 63 62 62 59 57 60 59 53 50 50 51 52 54 54 53 50 46 43 42
62 65 68 71 72 70 67 66 66 66 63 56 49 41 33 26 19 13 11 12 13 14 12 10 10 12 17 24 30 35 43 53 64 74 82 87 89 89 89 90 90 89 86 83 83 84 84 83 83 84 84 85 86 86 88 90 90 89 90 91 92 93 94 95 91 83 82 83 76 64 63 67 63 59 63 63 57 54 54 55 57 56 54 53 51 49 45 43
63 65 69 71 71 70 67 65 64 65 63 57 49 41 32 24 18 14 12 13 14 14 14 12 10 12 16 22 28 33 40 49 60 71 79 85 88 89 89 90 90 88 86 84 84 87 87 85 85 86 85 84 86 87 89 91 90 89 91 92 93 93 94 96 94 88 84 85 83 71 65 70 68 61 64 66 61 58 56 57 60 56 52 52 53 50 46 42
64 67 70 72 71 69 67 65 63 63 62 56 48 41 31 22 18 15 14 14 15 15 16 14 12 12 15 18 24 32 38 45 55 66 76 83 87 89 89 90 90 88 87 87 87 89 88 86 85 85 85 86 88 89 90 92 92 91 91 93 94 94 95 95 95 92 87 86 89 81 71 72 72 65 64 67 66 62 58 57 60 58 54 54 54 51 46 42
65 68 71 71 70 68 67 66 63 61 59 54 47 40 30 21 18 15 15 16 16 17 18 17 16 14 14 16 22 29 36 42 51 62 72 80 85 87 88 90 90 89 89 88 87 87 87 85 84 84 85 87 89 89 91 92 92 91 91 91 93 94 95 95 96 95 91 89 91 89 79 74 75 70 67 69 69 65 60 57 58 59 56 54 52 49 47 45
65 68 71 71 69 68 66 65 65 62 57 51 46 38 28 19 17 16 15 16 18 19 19 19 18 16 15 15 18 24 31 38 46 55 66 76 83 86 88 90 90 90 90 88 87 87 87 85 84 85 87 88 88 88 88 89 90 90 91 92 93 94 95 96 96 97 95 92 93 94 87 78 76 74 70 71 72 69 63 58 58 58 55 51 50 51 51 51
66 69 71 70 69 68 66 64 64 62 56 50 45 38 27 17 15 16 16 17 19 20 20 20 20 19 17 16 16 19 25 33 41 50 59 71 80 85 88 89 90 90 90 89 88 88 88 86 85 86 88 88 87 86 85 87 89 91 92 92 93 94 95 95 96 97 96 95 95 97 94 85 77 76 74 73 74 73 68 61 60 62 60 54 52 53 55 56
67 70 72 70 69 68 66 63 62 60 56 50 43 36 26 16 13 15 17 18 20 22 21 21 21 21 20 19 17 17 21 28 37 45 54 65 75 83 87 89 90 91 91 90 89 87 87 87 88 88 88 88 87 86 87 88 89 91 93 93 94 95 96 96 97 97 97 97 97 98 98 92 82 77 75 75 75 75 71 64 61 64 65 62 59 57 57 59
67 70 71 70 69 68 65 63 61 58 53 48 42 34 25 16 12 14 17 19 21 23 23 22 22 22 21 21 20 19 19 24 32 41 50 60 71 80 85 88 90 91 91 91 90 88 87 88 89 89 89 89 88 88 89 89 89 92 94 95 95 95 95 95 96 97 97 98 99 99 99 97 90 81 76 75 76 77 75 68 64 65 65 65 63 62 62 63
68 70 70 70 70 68 64 62 60 57 52 47 41 32 23 15 12 14 16 19 21 24 25 25 25 23 23 23 22 21 21 21 26 34 45 55 65 75 83 87 90 91 92 92 91 89 89 89 90 91 90 89 89 88 89 89 89 92 94 95 95 94 95 97 96 97 98 100 101 100 100 101 97 87 79 78 78 79 79 73 67 67 67 65 64 65 65 65
68 71 70 70 69 67 64 62 60 56 51 46 40 31 22 15 12 13 16 19 21 24 27 28 27 26 24 24 23 23 23 22 24 28 37 48 59 69 79 86 90 92 93 93 92 91 91 90 91 91 90 89 87 86 87 88 88 90 91 92 92 94 96 97 97 98 100 101 102 102 101 102 99 91 83 81 80 80 82 78 70 69 70 68 67 67 66 66
68 70 69 69 69 66 63 62 59 55 49 45 38 29 21 15 13 13 16 19 21 24 27 28 28 28 26 25 24 24 24 24 25 26 31 40 51 63 74 83 89 92 93 93 92 93 93 92 91 91 90 88 86 84 85 86 87 87 88 89 90 93 94 95 97 98 99 101 101 102 102 101 98 92 85 84 84 82 84 83 74 70 73 72 70 70 69 68
68 69 68 68 68 66 63 62 59 54 48 44 38 28 20 16 14 14 17 20 22 24 27 28 28 28 28 27 26 26 26 26 26 27 29 35 43 54 66 77 85 90 93 93 93 94 94 93 91 91 91 90 88 86 85 86 87 87 87 89 91 93 94 96 98 98 99 100 101 103 103 99 97 95 87 85 90 87 85 86 81 74 74 75 74 71 71 72
68 68 68 68 68 65 63 62 58 53 48 44 37 28 20 16 15 15 17 20 23 24 26 27 28 28 28 28 28 28 28 28 28 29 30 33 38 45 56 68 79 86 91 93 94 95 95 94 92 92 93 93 92 90 88 88 88 89 89 90 91 93 95 96 99 100 99 100 101 102 100 94 95 99 89 82 89 93 89 89 88 82 78 77 77 74 71 72
Wind_Direction
309 308 307 306 303 301 300 299 300 301 302 302 301 300 298 295 292 288 284 279 273 267 260 254 249 245 242 238 232 227 225 223 222 222 221 219 217 215 215 215 215 212 210 208 206 206 205 203 199 197 195 193 191 192 196 194 188 191 183 175 186 192 197 212 217 223 227 223 172 127 68 52 51 44 39 34 32 37 44 51 54 52 50 49 48 48 48 49
303 303 303 302 300 298 297 298 300 301 302 302 302 301 299 296 293 289 285 281 276 270 264 258 252 247 244 241 236 231 226 224 223 222 222 220 217 214 213 214 214 212 210 207 206 205 205 203 199 196 194 192 191 190 194 194 191 194 183 175 184 189 205 217 219 229 228 228 189 141 93 62 53 39 37 34 32 35 40 49 56 55 50 48 49 50 49 49
299 299 299 297 296 295 296 297 299 300 301 301 300 298 297 295 292 289 285 281 277 272 267 261 255 249 245 242 239 234 229 225 223 222 222 221 217 213 211 212 212 212 210 207 207 205 205 203 199 195 193 192 190 189 192 194 193 191 183 182 189 185 200 210 212 232 233 229 209 172 209 80 57 32 29 30 31 36 38 45 55 59 53 48 47 51 51 49
298 297 296 294 293 293 294 296 297 298 298 298 297 296 295 294 292 290 286 282 277 273 268 263 258 252 246 242 239 237 232 227 224 223 222 221 218 214 211 211 211 211 210 208 207 206 204 202 199 196 193 192 190 189 191 194 193 188 185 189 194 186 193 205 208 226 236 231 226 212 210 112 63 26 20 24 30 37 39 42 49 57 55 50 46 48 52 50
299 297 296 294 294 293 293 294 295 296 297 297 296 295 295 294 293 291 288 284 280 274 269 264 259 254 247 243 239 237 234 230 227 224 222 220 219 215 211 210 209 211 210 208 207 205 203 201 200 197 193 192 190 188 190 194 192 191 193 194 194 189 191 199 203 218 231 231 232 220 196 132 64 19 11 15 27 37 41 41 43 51 54 52 46 46 51 51
300 298 296 295 294 293 292 293 294 295 295 295 295 294 294 294 293 291 289 286 282 277 271 265 260 255 249 243 238 236 233 231 229 226 223 220 219 217 213 210 208 209 210 208 206 204 202 200 200 197 194 193 190 188 189 192 194 196 198 195 197 199 195 193 197 213 225 226 229 214 187 142 48 0 0 3 27 37 41 42 40 45 50 52 49 45 49 51
302 299 297 295 293 291 291 291 293 294 294 293 292 292 292 292 292 291 290 287 283 279 273 267 261 256 251 244 238 235 232 231 231 228 225 221 218 217 214 211 208 208 209 207 205 203 201 200 199 197 194 192 190 188 188 190 194 197 198 195 199 205 198 191 195 212 218 219 224 209 195 211 263 297 328 345 24 36 39 44 41 41 44 49 50 46 47 50
304 301 298 295 291 289 289 290 292 293 293 292 291 290 290 290 290 290 289 287 284 280 275 269 262 256 252 245 239 233 228 230 231 229 226 222 219 218 216 212 207 208 208 205 204 203 201 200 199 197 194 192 190 189 189 190 192 196 198 198 200 201 196 192 194 207 213 214 219 214 211 221 245 264 281 309 18 35 35 45 44 39 40 45 48 47 45 48
307 304 300 295 291 288 288 289 290 292 292 292 291 289 289 288 288 288 288 287 285 281 276 269 263 257 252 246 241 233 226 229 229 228 227 223 219 218 216 213 208 207 207 204 204 203 201 200 199 197 194 192 191 189 189 191 193 196 198 201 203 199 195 195 195 200 208 213 217 219 218 217 233 251 258 273 7 31 32 45 47 39 37 41 45 47 45 46
309 306 301 297 292 289 288 289 291 292 293 292 291 290 288 287 287 287 287 286 285 282 277 270 263 257 252 247 241 232 228 228 226 226 227 224 220 219 216 213 208 207 207 204 204 203 201 200 198 197 194 192 191 190 189 190 194 198 197 200 205 201 197 198 198 197 202 212 218 222 224 219 226 242 240 250 341 17 33 48 50 41 36 38 41 45 46 43
309 307 303 299 295 292 290 291 293 294 294 293 292 290 289 288 287 286 286 285 284 281 277 271 263 256 251 247 240 233 231 227 222 223 225 224 222 219 217 214 209 207 206 204 203 202 201 200 199 197 194 192 190 190 189 189 194 197 196 199 203 201 200 200 200 198 197 205 215 223 229 225 230 244 237 245 305 330 34 54 53 44 36 36 38 41 45 42
310 307 304 301 297 295 294 295 296 295 295 294 293 291 290 289 288 288 286 285 282 279 275 270 264 256 250 246 240 234 231 225 219 220 222 222 222 219 216 214 210 206 206 205 203 201 201 200 198 197 195 192 190 190 190 188 192 195 195 197 200 199 200 202 206 203 196 197 209 220 225 226 235 244 238 248 275 285 1 61 56 47 39 35 35 39 42 41
310 307 305 302 299 298 298 298 298 297 296 295 294 293 292 291 290 289 287 285 281 277 272 267 262 256 249 244 239 235 230 224 219 218 218 220 221 220 216 213 211 207 204 204 203 202 201 199 198 196 195 192 191 191 190 188 190 195 198 198 197 197 196 202 209 204 197 196 204 215 219 223 232 229 227 243 256 262 277 72 60 49 44 36 33 38 41 39
310 308 306 304 302 301 300 300 300 299 298 297 296 295 295 294 293 291 289 285 281 275 270 264 259 254 248 243 238 234 229 224 219 216 215 217 218 219 217 213 211 207 204 203 203 202 201 199 197 196 194 192 190 191 190 187 188 193 198 198 198 199 196 198 206 201 197 198 200 207 213 218 223 218 222 236 241 240 241 98 64 48 46 39 32 38 42 39
310 308 307 305 304 304 304 303 302 302 301 300 299 298 298 297 296 294 291 287 281 275 268 261 255 250 246 241 236 232 228 223 219 215 213 213 215 217 216 213 211 207 204 203 203 202 200 198 197 196 194 192 190 190 188 187 189 193 196 196 197 203 202 202 207 205 203 203 206 210 212 218 218 216 226 233 230 228 227 198 82 52 46 44 32 36 44 41
311 309 308 307 307 307 307 306 305 304 303 302 302 301 301 300 299 297 293 289 282 274 266 258 251 246 243 239 234 230 226 222 219 215 211 211 212 215 215 213 210 208 204 202 202 202 200 198 197 195 193 191 189 188 187 186 189 193 197 199 197 200 204 206 210 211 208 207 211 211 209 214 215 217 227 229 228 236 237 217 144 84 45 49 36 35 46 46
312 310 309 310 311 310 310 309 308 307 306 305 305 305 305 304 302 299 296 290 283 274 264 255 248 243 239 237 233 228 224 221 218 214 210 208 209 212 213 212 210 208 205 202 202 202 201 199 197 195 193 191 188 187 186 186 187 190 196 198 197 199 200 204 210 212 208 206 209 205 204 208 213 220 225 223 228 244 249 230 189 150 74 56 42 32 45 52
313 312 312 313 314 313 313 312 311 309 309 309 309 308 308 307 305 301 297 291 283 273 263 253 245 239 236 233 230 226 222 219 216 214 210 207 207 209 211 211 210 208 206 202 201 201 201 199 197 195 193 191 189 187 186 187 187 190 192 191 194 198 197 199 208 211 208 208 210 207 207 210 213 219 219 217 219 232 243 231 203 169 143 75 52 32 43 56
314 314 316 316 316 316 315 314 313 312 312 312 312 311 310 309 306 303 298 291 283 272 261 250 241 235 231 229 227 223 219 216 214 212 209 206 205 207 208 210 209 207 205 203 201 201 201 200 197 194 193 191 189 188 187 187 188 191 191 189 192 196 194 196 202 207 208 208 209 206 207 210 218 221 216 214 210 220 238 230 206 183 169 132 64 35 38 58
315 317 318 319 319 319 317 316 315 315 314 314 314 314 312 310 307 303 298 290 281 269 257 246 236 230 227 225 223 221 217 214 212 211 208 205 204 205 206 207 208 207 205 203 201 200 201 200 196 194 193 191 189 188 187 188 188 191 190 190 195 193 192 197 203 207 207 206 204 202 201 205 225 230 218 212 206 215 234 227 209 196 184 186 98 44 33 59
318 320 321 321 321 321 319 318 317 317 317 317 317 316 314 312 308 303 297 289 279 267 254 242 233 226 222 220 219 217 215 212 210 209 207 205 203 203 204 205 206 206 205 203 201 200 200 200 197 195 193 191 189 187 187 188 189 191 191 192 195 191 188 196 205 208 206 204 200 197 196 198 213 222 216 212 206 212 230 227 215 203 192 194 171 154 48 64
320 322 323 324 324 322 321 320 319 319 319 319 319 318 316 312 308 303 298 289 278 267 253 241 230 222 218 215 214 213 211 209 208 207 206 204 202 201 202 203 204 205 204 203 201 200 200 200 198 195 193 190 188 188 188 189 189 191 192 192 193 190 187 189 197 201 201 204 201 198 198 197 201 208 215 217 210 212 225 232 224 206 194 198 193 193 170 83
323 324 325 326 325 323 322 322 322 322 322 323 322 321 318 313 310 305 299 290 278 266 254 241 229 221 214 211 210 209 208 206 205 205 204 203 202 200 200 201 203 204 204 202 201 200 199 200 199 195 192 190 189 189 188 189 189 190 192 193 192 191 189 187 190 195 199 203 203 201 201 198 197 200 210 216 211 211 220 232 233 209 191 197 202 203 181 130
324 326 327 328 326 325 324 324 324 325 326 326 325 323 319 316 313 308 301 292 280 267 253 241 229 220 213 208 207 206 205 204 203 203 203 203 200 199 199 200 201 202 203 202 201 200 200 200 198 194 192 191 189 189 188 188 189 190 192 192 191 192 191 186 186 192 197 201 204 206 203 201 201 201 207 213 211 210 214 227 236 216 192 192 201 208 193 159
326 328 329 329 327 326 326 326 327 328 329 329 328 324 321 319 316 310 303 294 281 268 254 240 229 219 212 207 204 203 202 201 201 201 201 202 200 199 198 198 199 200 201 202 201 201 201 200 198 194 193 191 190 189 189 189 190 191 193 192 189 191 193 189 186 190 195 198 201 205 203 200 201 203 207 211 210 210 211 222 233 220 196 190 197 210 208 180
328 330 331 329 328 329 329 329 330 332 333 332 330 327 325 323 318 311 305 294 281 268 254 239 228 219 212 207 203 201 200 198 198 198 199 200 200 199 198 198 198 198 200 202 202 201 200 199 198 196 193 191 190 190 189 189 191 192 193 190 184 185 191 192 191 192 196 198 200 204 203 200 201 204 205 208 211 211 210 216 226 221 202 192 194 205 212 198
330 332 331 329 330 331 331 331 333 335 336 335 332 330 328 325 319 312 305 297 284 269 254 238 227 218 211 206 202 200 198 197 197 197 197 198 199 199 198 198 197 197 200 202 202 202 199 198 199 197 194 191 191 191 190 190 192 192 192 188 181 179 185 190 192 193 195 197 200 205 207 206 208 212 211 211 214 215 215 215 217 218 207 197 197 206 212 208
332 332 331 330 332 333 333 334 336 338 339 337 334 332 331 327 319 312 305 300 289 270 254 237 225 217 211 205 201 199 197 196 195 195 196 197 198 198 197 197 197 198 200 201 202 201 199 198 199 198 196 193 192 192 190 192 192 191 192 188 180 177 181 186 190 192 193 193 197 203 208 209 211 214 215 215 215 217 219 217 214 214 210 201 201 209 214 216
333 332 331 332 334 335 335 337 338 340 341 339 336 335 333 327 319 312 305 301 293 273 253 235 223 216 210 205 201 197 196 195 195 195 195 196 197 197 197 196 197 198 199 201 202 200 198 199 198 197 196 194 194 192 191 193 191 191 193 190 183 180 184 186 186 189 191 191 194 201 205 206 205 206 209 212 214 215 217 217 214 214 214 208 206 211 216 221
333 332 332 333 336 337 338 339 340 342 342 340 338 338 335 328 320 312 304 301 293 272 253 234 222 215 209 204 200 197 195 194 194 194 194 196 197 196 196 196 197 198 199 202 202 199 199 199 198 198 197 195 194 192 192 192 190 191 193 191 187 185 189 189 184 187 191 190 193 199 202 203 202 201 206 211 215 215 214 215 214 216 218 213 211 214 217 222
333 332 333 335 337 338 339 341 342 344 344 342 340 340 337 329 320 311 302 298 290 272 254 235 221 214 208 204 200 197 195 193 193 194 194 195 196 196 196 196 197 198 200 202 201 199 200 200 199 199 198 197 195 193 193 190 189 193 193 192 189 188 191 189 184 186 190 191 194 200 202 204 205 206 211 217 218 216 215 216 218 219 219 217 216 217 219 222
333 333 334 336 338 340 341 342 343 345 345 343 341 341 339 330 320 311 303 298 291 276 258 239 221 212 206 203 200 197 195 193 192 193 193 195 196 196 196 196 196 198 200 201 200 198 200 201 199 200 199 197 194 194 194 191 191 193 193 192 190 189 192 191 185 185 186 186 190 197 202 204 207 210 214 219 221 219 219 219 219 220 219 218 219 220 221 223
333 334 335 337 340 341 342 343 344 346 346 344 342 342 339 331 321 312 302 295 291 281 260 241 223 211 205 202 199 198 196 194 193 193 193 194 195 196 197 197 196 198 198 198 197 197 200 201 199 200 199 196 194 195 194 192 193 194 193 193 192 190 193 192 185 183 184 182 181 190 198 201 206 211 217 222 223 222 219 216 218 222 220 219 220 221 222 223
334 335 336 338 340 342 342 343 345 346 346 344 342 342 340 332 322 309 297 291 288 281 263 242 222 209 203 200 198 198 197 195 193 193 193 194 195 196 197 197 197 198 197 197 196 197 200 200 199 199 198 196 196 196 194 193 194 194 193 194 193 192 194 193 186 184 185 181 178 184 191 194 203 210 216 221 221 221 217 213 217 222 221 220 220 221 222 223
334 336 337 339 341 342 343 344 345 346 346 344 341 341 340 333 322 308 293 286 284 279 263 241 221 206 201 198 195 196 197 195 194 194 194 194 195 196 197 197 197 197 197 197 197 198 200 199 199 199 198 197 197 196 194 194 195 195 195 195 194 193 195 196 190 185 186 185 182 185 187 191 200 205 210 215 217 219 216 211 215 220 221 219 218 219 221 222
335 336 338 340 341 342 343 344 345 346 346 344 340 340 340 333 321 307 287 278 277 273 260 242 223 206 201 199 196 194 194 195 195 194 194 195 196 196 196 196 197 197 196 197 197 198 200 200 199 199 199 199 198 195 195 195 195 196 197 196 195 194 195 198 194 187 188 190 189 189 187 192 198 202 207 210 211 214 214 212 214 218 221 221 220 218 220 221
336 337 339 340 341 342 343 344 345 345 346 345 341 338 339 334 321 304 277 262 263 262 255 241 225 208 201 200 198 195 193 194 196 195 195 196 197 197 197 197 198 197 196 197 197 198 200 199 199 199 199 200 199 196 196 196 196 197 197 196 196 195 196 199 196 190 191 193 193 193 191 191 195 200 206 209 209 212 211 210 212 214 216 220 221 219 219 220
336 338 340 341 341 342 343 344 344 345 345 344 341 338 336 332 322 301 264 245 249 255 250 237 226 212 201 199 199 198 195 194 195 196 196 196 197 198 197 198 198 197 197 198 197 198 200 199 199 200 200 200 199 197 197 198 197 198 198 197 197 196 197 199 198 193 193 194 194 194 193 191 193 199 206 209 210 211 208 206 209 212 214 218 220 219 220 220
337 338 340 341 342 342 343 344 344 344 344 343 341 338 335 330 319 297 259 235 238 247 245 233 223 212 202 199 198 199 198 196 196 197 197 198 198 198 197 198 198 198 198 198 197 198 200 199 199 201 201 200 199 197 198 200 199 199 199 198 198 198 198 200 199 195 195 196 195 195 193 191 192 197 204 208 207 208 208 207 209 212 216 220 221 220 220 221
338 339 341 341 342 342 342 343 344 343 343 343 341 338 334 327 315 292 259 232 228 238 241 233 220 206 202 202 198 197 199 198 198 198 198 199 198 198 198 198 199 199 198 198 197 199 200 198 199 201 201 201 200 199 199 200 199 199 200 199 200 200 200 201 201 199 197 198 198 197 193 191 193 196 202 206 205 205 208 208 209 213 218 223 224 222 221 222
338 340 341 341 342 342 342 343 344 343 342 342 340 336 333 324 310 288 259 234 221 227 234 231 217 203 204 205 200 197 199 200 200 199 199 199 199 198 199 199 200 199 198 198 198 200 201 199 199 201 200 200 201 200 201 201 200 200 201 200 200 202 201 201 202 201 200 199 200 200 195 191 193 195 200 206 206 204 205 206 210 215 219 223 224 222 219 219
338 340 341 342 342 342 342 342 343 343 342 340 338 335 331 321 305 283 256 236 220 217 224 225 217 205 202 205 203 201 200 201 202 201 199 199 199 199 199 200 201 200 199 199 199 201 201 199 200 201 201 200 201 201 201 200 200 201 202 201 201 202 203 202 203 203 201 201 202 202 199 194 194 195 198 205 207 204 203 206 212 217 220 221 223 222 216 215
339 341 342 342 342 342 342 341 341 342 341 338 336 334 329 317 299 277 253 236 221 214 216 217 216 208 196 200 206 204 202 202 203 202 200 200 200 200 200 201 201 201 201 200 200 202 202 200 200 202 202 202 202 203 202 201 200 202 203 202 202 203 204 203 204 204 203 202 203 203 202 198 195 194 196 201 206 204 203 206 212 217 219 219 221 220 215 211
340 341 342 342 342 342 342 341 340 340 340 338 335 333 328 315 294 272 251 234 222 215 212 211 213 209 197 198 208 208 205 203 203 203 202 200 200 200 201 202 202 202 202 201 201 202 203 201 201 203 204 204 204 204 203 202 201 203 204 204 203 204 205 205 205 204 203 203 204 203 204 202 197 195 195 198 203 204 203 204 208 213 216 216 217 217 213 212
340 341 342 342 342 342 341 341 340 338 339 338 335 332 326 312 289 268 247 233 224 217 213 208 208 208 202 198 205 207 207 205 204 203 203 202 201 200 201 202 203 203 203 203 202 203 203 201 202 204 205 205 204 204 203 202 203 204 205 205 205 205 206 206 207 206 204 204 205 204 205 206 201 197 196 197 201 203 203 203 205 210 215 216 215 215 213 213
341 342 342 342 342 342 341 341 340 338 338 337 334 330 323 310 286 263 244 232 225 218 214 209 207 208 205 201 201 202 206 206 205 204 203 203 202 201 201 202 203 204 204 204 204 204 203 202 203 205 206 205 205 204 204 203 203 204 205 205 206 206 206 207 208 207 206 206 207 205 206 208 205 200 199 199 200 202 203 205 206 209 214 216 217 217 215 214
341 342 342 342 342 342 341 340 339 338 337 336 334 329 320 306 282 259 241 230 223 219 216 212 209 209 207 205 202 201 203 205 205 205 203 203 203 202 202 202 203 204 205 205 205 205 205 204 204 206 207 206 205 205 205 204 204 205 205 206 206 206 207 208 209 209 208 208 209 208 207 209 208 205 202 201 201 202 204 206 207 208 211 214 217 219 220 219
342 342 342 342 343 343 341 340 339 337 337 336 334 328 318 303 278 257 240 227 221 218 217 215 212 210 209 208 205 203 204 204 205 206 205 204 203 203 202 202 203 204 205 206 206 206 206 206 206 207 208 208 207 206 206 206 206 207 206 206 206 207 207 209 209 210 210 210 210 209 208 209 210 208 205 204 203 202 203 206 206 206 209 211 214 217 221 222
342 342 342 342 343 342 341 340 339 338 337 337 335 328 317 301 277 255 238 227 220 217 216 216 214 212 211 211 209 208 207 205 205 207 207 206 205 204 204 203 203 204 205 205 206 207 208 208 207 208 209 209 208 208 208 208 208 209 208 207 207 209 209 209 210 211 211 211 211 211 210 210 210 211 210 208 207 205 204 206 205 204 207 210 210 213 217 221
342 343 342 342 342 342 342 341 340 338 338 338 336 328 315 298 276 252 234 225 220 217 216 216 214 213 213 213 212 212 212 210 207 207 208 208 207 206 206 205 204 204 205 205 206 207 208 209 208 209 209 210 209 209 210 210 210 210 209 208 209 211 211 211 212 213 213 212 212 212 212 210 210 213 215 214 213 211 206 206 206 204 206 209 209 209 212 216
342 342 342 341 342 343 343 343 341 339 339 339 337 329 314 295 274 251 232 222 219 217 217 217 215 214 214 214 215 216 216 215 212 210 210 209 209 208 208 207 206 206 205 205 205 207 209 209 209 209 210 210 210 209 210 212 212 211 210 210 210 211 212 212 213 214 214 214 214 213 214 212 211 215 219 217 216 215 210 207 208 206 205 207 208 209 210 212
342 342 341 341 342 343 344 344 342 340 340 340 337 329 313 293 273 253 234 223 219 217 217 216 215 214 215 215 216 218 219 219 216 215 215 212 210 210 210 209 208 208 207 206 206 207 209 209 209 209 210 210 210 209 210 211 213 212 211 211 211 211 212 212 214 215 214 214 215 214 214 214 213 214 218 219 218 217 213 209 209 208 207 206 207 209 209 210
Height
10935 10934 10933 10933 10932 10931 10931 10930 10930 10929 10928 10928 10927 10927 10927 10927 10927 10927 10927 10927 10928 10928 10929 10929 10930 10930 10931 10932 10934 10935 10936 10938 10940 10942 10943 10945 10949 10954 10959 10962 10966 10970 10974 10978 10982 10986 10988 10991 10994 10998 11002 11006 11008 11011 11014 11016 11017 11017 11019 11023 11024 11024 11024 11025 11026 11027 11027 11026 11027 11027 11027 11027 11025 11025 11023 11022 11020 11018 11015 11013 11011 11009 11008 11006 11004 11002 11000 10998
10933 10932 10931 10930 10929 10928 10927 10927 10926 10925 10925 10924 10924 10923 10923 10923 10923 10923 10923 10923 10924 10924 10925 10926 10927 10927 10928 10929 10930 10932 10933 10934 10936 10938 10939 10942 10946 10950 10955 10958 10962 10966 10970 10974 10978 10981 10984 10987 10991 10996 11000 11004 11007 11010 11013 11015 11017 11018 11019 11021 11022 11023 11024 11026 11026 11026 11026 11027 11027 11028 11028 11028 11026 11026 11024 11023 11022 11020 11017 11014 11012 11010 11009 11007 11006 11003 11002 11000
10931 10930 10928 10927 10926 10925 10924 10923 10922 10922 10921 10921 10920 10920 10919 10919 10919 10919 10919 10919 10919 10920 10920 10921 10922 10923 10925 10925 10926 10928 10929 10931 10933 10934 10935 10938 10942 10947 10951 10954 10958 10962 10966 10969 10973 10976 10980 10985 10990 10995 10999 11002 11005 11008 11011 11014 11016 11017 11018 11020 11021 11022 11024 11026 11027 11025 11026 11027 11028 11028 11029 11028 11027 11027 11026 11024 11023 11021 11018 11016 11013 11011 11010 11009 11007 11005 11003 11001
10928 10927 10926 10924 10923 10922 10921 10920 10919 10918 10917 10917 10916 10916 10915 10915 10915 10914 10914 10914 10914 10915 10915 10916 10917 10919 10920 10921 10923 10924 10925 10928 10929 10929 10931 10934 10938 10943 10947 10950 10954 10957 10961 10965 10969 10973 10979 10985 10989 10993 10997 11000 11003 11006 11010 11013 11015 11017 11018 11019 11020 11022 11023 11026 11028 11026 11027 11028 11028 11029 11029 11029 11027 11027 11026 11025 11024 11022 11020 11017 11015 11013 11011 11010 11009 11006 11004 11003
10924 10923 10922 10920 10919 10918 10917 10916 10915 10914 10913 10912 10911 10911 10910 10910 10910 10909 10909 10909 10909 10909 10910 10911 10912 10913 10915 10917 10918 10919 10922 10925 10925 10924 10926 10930 10934 10939 10942 10945 10949 10953 10957 10962 10966 10971 10977 10983 10986 10990 10994 10998 11001 11005 11009 11012 11015 11018 11018 11018 11019 11021 11021 11024 11028 11028 11028 11029 11029 11029 11030 11029 11028 11028 11027 11026 11025 11023 11021 11019 11016 11014 11013 11011 11010 11008 11005 11004
10921 10919 10918 10916 10915 10914 10913 10912 10911 10910 10909 10907 10906 10906 10905 10904 10904 10904 10904 10904 10904 10904 10904 10905 10906 10907 10909 10911 10913 10915 10918 10920 10919 10920 10923 10926 10930 10934 10938 10941 10945 10949 10953 10958 10963 10969 10974 10979 10983 10988 10992 10996 11000 11004 11007 11010 11013 11016 11016 11016 11018 11020 11021 11024 11028 11028 11029 11029 11029 11030 11030 11029 11028 11028 11028 11027 11026 11024 11022 11020 11018 11016 11014 11012 11011 11009 11007 11005
10917 10916 10914 10912 10911 10910 10908 10907 10906 10905 10904 10903 10901 10900 10899 10899 10898 10897 10898 10897 10898 10898 10898 10899 10899 10900 10902 10904 10907 10909 10913 10915 10914 10916 10919 10922 10926 10930 10933 10937 10941 10944 10949 10955 10960 10966 10971 10976 10980 10985 10989 10993 10998 11001 11004 11007 11009 11012 11013 11013 11015 11018 11021 11024 11027 11028 11029 11029 11030 11030 11029 11029 11028 11028 11028 11027 11026 11025 11023 11021 11020 11018 11016 11014 11012 11011 11009 11007
10914 10912 10910 10909 10907 10906 10904 10903 10901 10900 10899 10897 10896 10895 10894 10893 10892 10891 10891 10890 10891 10891 10892 10892 10892 10894 10894 10897 10900 10902 10909 10910 10909 10911 10913 10917 10922 10924 10928 10932 10937 10940 10945 10951 10957 10962 10967 10972 10976 10981 10986 10991 10995 10998 11001 11004 11006 11008 11010 11011 11013 11017 11020 11023 11025 11027 11028 11029 11029 11029 11028 11028 11028 11028 11028 11027 11026 11025 11024 11023 11021 11019 11017 11015 11014 11012 11010 11008
10910 10908 10906 10904 10903 10901 10900 10898 10897 10895 10893 10892 10890 10889 10888 10887 10885 10884 10883 10883 10883 10883 10884 10884 10885 10886 10886 10889 10891 10896 10903 10903 10903 10907 10908 10912 10917 10919 10922 10927 10934 10938 10942 10948 10953 10957 10962 10967 10973 10977 10983 10988 10992 10995 10998 11002 11005 11006 11008 11010 11012 11015 11018 11021 11023 11026 11028 11028 11028 11028 11027 11027 11027 11027 11027 11027 11026 11025 11025 11024 11022 11021 11019 11017 11015 11013 11012 11010
10905 10904 10902 10900 10898 10896 10894 10893 10891 10889 10888 10886 10884 10882 10881 10879 10878 10877 10876 10875 10875 10875 10875 10876 10877 10877 10879 10881 10882 10890 10896 10894 10897 10902 10902 10907 10911 10913 10918 10923 10930 10934 10938 10943 10948 10953 10958 10964 10969 10974 10979 10984 10988 10992 10995 10999 11003 11004 11006 11010 11011 11013 11016 11019 11021 11024 11025 11025 11026 11026 11026 11026 11026 11027 11027 11027 11026 11025 11026 11024 11022 11022 11020 11018 11017 11015 11013 11012
10901 10899 10897 10895 10892 10890 10889 10887 10885 10883 10881 10879 10877 10875 10873 10871 10870 10869 10868 10867 10866 10866 10866 10866 10867 10868 10870 10871 10875 10884 10886 10885 10891 10894 10896 10901 10904 10908 10913 10918 10925 10930 10934 10939 10943 10949 10955 10960 10965 10970 10975 10980 10985 10989 10992 10996 10999 11002 11006 11009 11010 11011 11014 11017 11019 11020 11020 11022 11025 11025 11025 11026 11026 11026 11026 11026 11025 11026 11026 11025 11023 11022 11021 11020 11018 11016 11014 11013
10895 10893 10892 10889 10887 10885 10883 10881 10878 10876 10874 10872 10869 10867 10865 10863 10861 10859 10858 10857 10856 10855 10855 10855 10856 10858 10860 10862 10868 10874 10873 10877 10884 10887 10890 10895 10898 10902 10907 10913 10919 10925 10930 10934 10939 10944 10950 10955 10960 10966 10972 10977 10982 10986 10989 10993 10997 11001 11005 11007 11008 11011 11013 11015 11016 11017 11018 11021 11023 11023 11024 11025 11025 11025 11026 11025 11025 11025 11026 11025 11024 11023 11022 11021 11019 11018 11016 11015
10890 10888 10886 10884 10881 10879 10877 10874 10871 10869 10866 10863 10861 10858 10855 10852 10850 10848 10847 10845 10844 10844 10844 10844 10845 10847 10850 10853 10858 10862 10864 10870 10876 10879 10884 10888 10892 10896 10901 10908 10914 10919 10925 10930 10935 10939 10944 10950 10956 10962 10967 10973 10978 10982 10986 10991 10995 10999 11002 11005 11008 11010 11012 11014 11015 11016 11017 11019 11020 11021 11022 11023 11024 11025 11025 11025 11025 11025 11025 11025 11024 11024 11023 11022 11021 11019 11017 11016
10884 10882 10880 10878 10875 10873 10870 10867 10864 10861 10858 10854 10851 10848 10845 10841 10838 10835 10834 10832 10831 10831 10831 10832 10833 10835 10838 10842 10847 10851 10855 10861 10866 10871 10876 10881 10886 10889 10895 10902 10907 10914 10920 10925 10929 10933 10938 10945 10951 10957 10963 10969 10974 10979 10984 10990 10994 10996 10998 11002 11006 11008 11010 11012 11013 11015 11016 11016 11018 11019 11020 11021 11023 11024 11024 11024 11024 11025 11026 11025 11025 11024 11023 11022 11022 11020 11019 11018
10879 10877 10874 10872 10869 10866 10863 10860 10857 10853 10849 10845 10841 10837 10833 10829 10825 10822 10819 10818 10816 10816 10816 10818 10819 10821 10825 10830 10835 10839 10845 10851 10857 10862 10867 10873 10878 10882 10888 10895 10902 10909 10915 10920 10924 10927 10933 10939 10945 10951 10958 10964 10970 10977 10982 10988 10992 10994 10996 10998 11002 11005 11007 11010 11012 11014 11014 11014 11016 11017 11019 11020 11021 11022 11023 11024 11024 11024 11025 11025 11025 11024 11024 11023 11023 11022 11020 11019
10874 10871 10869 10866 10863 10859 10855 10852 10848 10844 10840 10835 10830 10825 10820 10816 10811 10807 10804 10802 10800 10800 10800 10803 10805 10808 10812 10817 10822 10827 10834 10842 10848 10853 10859 10865 10871 10876 10882 10888 10895 10902 10908 10913 10917 10922 10928 10934 10940 10947 10954 10961 10967 10973 10979 10985 10989 10992 10995 10996 10998 11001 11005 11008 11010 11013 11013 11013 11015 11016 11018 11019 11020 11021 11022 11023 11023 11024 11025 11025 11025 11025 11024 11023 11023 11023 11021 11020
10869 10866 10863 10860 10856 10852 10848 10844 10840 10835 10830 10825 10819 10813 10807 10802 10797 10791 10788 10786 10783 10782 10784 10787 10790 10793 10798 10804 10809 10817 10825 10832 10837 10842 10850 10857 10863 10868 10874 10880 10888 10894 10901 10908 10913 10918 10924 10930 10936 10943 10949 10956 10963 10969 10974 10979 10982 10986 10990 10992 10996 10999 11002 11005 11008 11011 11012 11012 11014 11016 11017 11018 11019 11020 11021 11022 11023 11024 11025 11025 11025 11025 11025 11024 11024 11024 11022 11021
10864 10860 10857 10853 10849 10845 10840 10836 10831 10825 10820 10814 10807 10801 10794 10788 10782 10776 10772 10769 10766 10766 10768 10770 10774 10779 10784 10789 10796 10804 10812 10819 10826 10833 10840 10848 10854 10860 10867 10874 10881 10887 10895 10902 10908 10913 10919 10925 10931 10939 10947 10953 10959 10964 10968 10973 10977 10980 10983 10988 10993 10995 10999 11002 11005 11008 11009 11010 11012 11014 11016 11017 11018 11018 11019 11021 11022 11023 11024 11025 11025 11025 11025 11024 11024 11024 11023 11022
10859 10854 10851 10847 10842 10838 10833 10827 10822 10816 10809 10803 10796 10788 10781 10773 10766 10760 10756 10752 10750 10750 10752 10754 10759 10764 10769 10775 10783 10792 10800 10808 10816 10823 10831 10839 10846 10853 10860 10867 10873 10881 10889 10896 10903 10909 10914 10920 10928 10937 10944 10950 10955 10960 10965 10969 10973 10976 10980 10986 10989 10991 10996 11000 11003 11006 11007 11008 11010 11012 11014 11015 11016 11017 11018 11020 11021 11023 11024 11025 11025 11025 11025 11025 11024 11025 11024 11023
10853 10849 10845 10840 10835 10830 10825 10819 10813 10806 10799 10792 10784 10775 10767 10759 10751 10746 10741 10738 10736 10736 10737 10740 10744 10750 10755 10763 10772 10780 10788 10798 10805 10814 10823 10831 10838 10845 10852 10859 10866 10875 10883 10891 10898 10903 10908 10915 10924 10931 10937 10943 10949 10955 10961 10965 10969 10972 10977 10982 10985 10988 10995 11000 11003 11005 11006 11007 11009 11011 11013 11015 11016 11016 11017 11019 11020 11022 11023 11024 11025 11025 11025 11025 11024 11025 11025 11024
10848 10844 10839 10834 10828 10823 10817 10811 10804 10797 10789 10781 10772 10763 10753 10745 10738 10733 10730 10727 10725 10725 10726 10728 10732 10737 10743 10751 10760 10768 10778 10787 10796 10805 10814 10822 10830 10837 10844 10852 10860 10868 10876 10884 10891 10897 10903 10910 10917 10922 10929 10936 10943 10950 10956 10961 10965 10969 10972 10976 10980 10987 10994 10999 11002 11003 11005 11006 11008 11010 11012 11014 11015 11016 11016 11017 11019 11020 11021 11023 11024 11024 11025 11025 11025 11025 11025 11024
10843 10838 10833 10828 10822 10816 10809 10803 10796 10788 10780 10771 10761 10751 10741 10733 10727 10723 10720 10718 10716 10716 10717 10718 10722 10726 10732 10741 10748 10757 10766 10776 10786 10795 10804 10813 10821 10828 10837 10845 10853 10860 10869 10878 10885 10891 10898 10904 10909 10915 10924 10933 10941 10946 10951 10956 10960 10964 10968 10971 10976 10984 10989 10994 10998 11001 11003 11005 11007 11009 11011 11012 11014 11015 11016 11016 11018 11019 11020 11021 11023 11024 11024 11024 11024 11025 11025 11025
10837 10832 10827 10822 10815 10809 10802 10795 10787 10779 10770 10760 10750 10739 10731 10724 10719 10715 10712 10710 10709 10709 10709 10711 10713 10717 10723 10730 10737 10746 10756 10766 10776 10785 10795 10803 10811 10821 10831 10838 10846 10854 10863 10871 10878 10885 10890 10894 10900 10910 10920 10928 10934 10938 10943 10951 10956 10961 10964 10967 10973 10980 10984 10989 10994 10998 11001 11003 11005 11006 11008 11011 11012 11014 11015 11014 11015 11017 11018 11020 11022 11023 11024 11024 11024 11024 11025 11025
10831 10826 10821 10815 10809 10802 10795 10787 10780 10771 10761 10750 10739 10730 10722 10716 10712 10708 10706 10704 10703 10703 10703 10704 10707 10710 10715 10721 10727 10736 10746 10756 10767 10777 10787 10795 10805 10815 10822 10830 10838 10848 10857 10864 10870 10876 10879 10882 10893 10905 10913 10919 10926 10932 10940 10946 10952 10956 10959 10961 10968 10975 10980 10986 10991 10995 10998 11001 11002 11003 11006 11009 11011 11013 11014 11012 11013 11015 11016 11018 11020 11022 11023 11023 11024 11025 11025 11025
10826 10821 10815 10810 10803 10796 10788 10780 10772 10763 10752 10741 10730 10722 10715 10710 10706 10703 10701 10700 10698 10698 10698 10699 10701 10704 10708 10713 10720 10729 10738 10748 10760 10770 10780 10790 10799 10806 10813 10822 10831 10841 10849 10855 10861 10865 10869 10879 10892 10902 10908 10915 10922 10929 10935 10941 10946 10950 10953 10959 10967 10972 10977 10983 10988 10991 10994 10997 10999 11000 11003 11007 11009 11011 11012 11011 11011 11013 11015 11017 11019 11021 11022 11023 11024 11025 11025 11025
10821 10815 10810 10804 10797 10789 10781 10773 10765 10755 10745 10733 10723 10716 10710 10705 10701 10698 10696 10696 10695 10694 10694 10695 10696 10699 10702 10707 10714 10721 10730 10741 10752 10762 10772 10782 10791 10799 10809 10818 10825 10835 10841 10845 10852 10857 10867 10880 10890 10896 10902 10910 10918 10923 10929 10935 10939 10942 10947 10957 10966 10970 10974 10981 10985 10989 10991 10993 10996 10998 11002 11004 11006 11007 11009 11009 11009 11011 11013 11015 11017 11019 11021 11022 11023 11024 11025 11025
10816 10810 10804 10798 10791 10783 10775 10766 10758 10749 10738 10727 10718 10711 10705 10701 10697 10694 10693 10692 10692 10691 10690 10691 10692 10695 10698 10702 10708 10715 10725 10735 10744 10754 10764 10774 10784 10795 10805 10811 10820 10828 10833 10840 10848 10855 10866 10877 10883 10890 10897 10905 10911 10916 10923 10928 10932 10937 10945 10956 10963 10967 10973 10979 10983 10986 10988 10990 10994 10997 10999 11002 11003 11005 11006 11007 11008 11010 11011 11013 11015 11018 11020 11021 11022 11023 11024 11024
10811 10805 10799 10793 10786 10778 10769 10760 10751 10742 10732 10722 10714 10707 10702 10697 10694 10692 10690 10689 10689 10688 10688 10688 10689 10691 10694 10698 10704 10711 10721 10730 10738 10747 10757 10766 10776 10786 10794 10803 10814 10821 10827 10836 10843 10852 10864 10871 10878 10887 10895 10901 10904 10910 10918 10922 10928 10939 10948 10955 10961 10965 10969 10972 10977 10980 10983 10986 10991 10994 10996 10999 11001 11003 11004 11006 11007 11008 11009 11011 11014 11016 11018 11020 11021 11023 11024 11024
10806 10801 10794 10787 10780 10772 10764 10755 10746 10737 10727 10718 10711 10704 10699 10695 10692 10689 10688 10687 10687 10686 10686 10686 10687 10689 10691 10695 10700 10707 10715 10724 10733 10743 10752 10761 10770 10779 10789 10801 10809 10816 10824 10831 10836 10847 10857 10862 10870 10878 10886 10893 10897 10906 10914 10919 10931 10941 10946 10952 10958 10960 10960 10962 10968 10974 10978 10983 10987 10990 10992 10996 10999 11002 11004 11004 11004 11006 11007 11009 11012 11015 11016 11018 11020 11022 11023 11024
10802 10796 10790 10783 10775 10767 10758 10749 10741 10732 10723 10715 10708 10702 10696 10692 10689 10687 10686 10685 10685 10684 10684 10684 10685 10686 10689 10692 10697 10704 10710 10719 10729 10738 10748 10757 10766 10775 10787 10796 10804 10813 10820 10824 10831 10843 10850 10855 10865 10873 10880 10887 10892 10901 10907 10917 10931 10937 10940 10948 10953 10954 10955 10959 10965 10969 10974 10979 10983 10986 10990 10994 10997 11000 11001 11001 11001 11003 11005 11008 11011 11013 11015 11016 11018 11020 11023 11024
10798 10792 10785 10778 10771 10762 10754 10744 10736 10728 10719 10712 10706 10700 10695 10691 10688 10686 10684 10683 10683 10682 10682 10683 10684 10685 10688 10691 10696 10701 10706 10714 10723 10733 10743 10752 10761 10772 10781 10790 10800 10809 10814 10819 10831 10844 10850 10857 10866 10872 10878 10883 10893 10903 10908 10918 10927 10928 10933 10942 10946 10949 10953 10958 10962 10966 10971 10975 10979 10983 10987 10991 10995 10996 10997 10997 10998 11001 11004 11007 11009 11010 11012 11015 11017 11019 11022 11023
10794 10788 10781 10774 10766 10758 10750 10741 10732 10724 10716 10709 10703 10698 10693 10689 10686 10684 10683 10682 10682 10681 10681 10682 10683 10684 10687 10690 10695 10700 10705 10711 10719 10729 10738 10746 10757 10768 10776 10784 10792 10798 10806 10817 10831 10841 10845 10851 10858 10864 10872 10882 10894 10902 10906 10915 10919 10921 10929 10935 10938 10944 10948 10952 10957 10962 10968 10971 10975 10980 10984 10989 10991 10991 10992 10994 10997 11000 11003 11005 11007 11008 11010 11013 11015 11018 11020 11022
10790 10784 10777 10770 10762 10754 10746 10737 10729 10721 10713 10706 10701 10696 10692 10688 10686 10683 10682 10681 10680 10680 10680 10681 10682 10684 10686 10689 10693 10698 10703 10709 10716 10724 10733 10743 10753 10762 10768 10775 10781 10788 10798 10811 10823 10831 10834 10841 10849 10857 10867 10880 10887 10889 10895 10904 10908 10914 10923 10927 10932 10938 10941 10947 10952 10957 10963 10968 10972 10977 10981 10986 10987 10987 10989 10992 10995 10999 11002 11006 11006 11005 11008 11011 11013 11016 11018 11020
10786 10780 10773 10766 10758 10751 10742 10734 10726 10718 10710 10704 10699 10695 10690 10687 10685 10683 10681 10680 10679 10679 10679 10679 10680 10683 10685 10687 10691 10696 10701 10708 10715 10722 10729 10737 10746 10753 10760 10770 10779 10788 10797 10806 10814 10819 10823 10833 10843 10851 10861 10871 10875 10880 10890 10898 10902 10909 10916 10920 10927 10932 10937 10942 10947 10954 10961 10965 10969 10972 10977 10982 10982 10983 10986 10989 10993 10996 11000 11005 11003 11000 11003 11008 11011 11013 11016 11018
10782 10776 10769 10762 10755 10747 10739 10731 10723 10715 10708 10702 10697 10693 10690 10686 10684 10682 10681 10680 10679 10678 10678 10678 10679 10681 10683 10685 10688 10692 10699 10706 10712 10719 10726 10733 10739 10746 10756 10767 10775 10783 10793 10802 10809 10813 10818 10827 10834 10842 10853 10860 10865 10876 10887 10894 10901 10907 10911 10915 10922 10927 10932 10936 10942 10950 10956 10960 10963 10965 10970 10974 10976 10979 10981 10984 10988 10992 10996 11000 10999 10998 11001 11004 11007 11010 11013 11015
10779 10772 10766 10758 10751 10744 10736 10728 10720 10713 10707 10700 10694 10691 10688 10685 10683 10681 10680 10679 10678 10677 10678 10677 10678 10680 10682 10683 10686 10689 10695 10702 10709 10714 10721 10729 10735 10740 10748 10757 10763 10771 10782 10791 10799 10807 10814 10823 10832 10841 10850 10856 10862 10872 10881 10887 10893 10899 10905 10911 10916 10921 10926 10931 10938 10945 10949 10953 10956 10959 10964 10968 10971 10976 10978 10981 10985 10988 10991 10994 10995 10997 10999 11001 11003 11007 11010 11012
10775 10768 10762 10755 10747 10740 10733 10725 10717 10710 10704 10699 10693 10688 10685 10683 10681 10680 10678 10678 10677 10677 10677 10677 10677 10679 10681 10683 10686 10688 10691 10697 10704 10711 10717 10723 10729 10735 10744 10751 10759 10770 10779 10786 10794 10803 10810 10820 10830 10838 10845 10852 10861 10871 10876 10879 10884 10890 10896 10902 10908 10915 10920 10925 10932 10938 10942 10948 10951 10955 10960 10964 10968 10972 10974 10977 10981 10984 10987 10990 10992 10994 10996 10998 11000 11004 11007 11010
10771 10764 10758 10751 10744 10736 10729 10722 10714 10707 10701 10696 10692 10686 10683 10681 10679 10678 10677 10677 10676 10676 10677 10677 10677 10678 10680 10682 10685 10688 10690 10694 10699 10706 10712 10717 10724 10733 10743 10752 10761 10771 10777 10784 10794 10803 10809 10819 10826 10830 10837 10845 10853 10863 10869 10873 10879 10884 10889 10895 10901 10909 10914 10919 10926 10931 10936 10941 10946 10950 10954 10958 10962 10966 10969 10973 10977 10980 10983 10986 10988 10990 10992 10995 10997 11001 11004 11007
10768 10761 10754 10747 10740 10732 10726 10719 10711 10704 10699 10694 10690 10685 10681 10678 10677 10676 10676 10676 10675 10675 10676 10677 10677 10678 10680 10681 10682 10686 10689 10692 10696 10701 10707 10713 10721 10731 10740 10749 10756 10763 10771 10781 10792 10799 10805 10814 10821 10826 10833 10839 10847 10857 10863 10867 10874 10880 10887 10894 10900 10904 10909 10915 10921 10926 10930 10935 10940 10945 10948 10952 10956 10959 10963 10968 10972 10977 10980 10982 10984 10986 10988 10991 10995 10998 11002 11005
10764 10758 10751 10743 10736 10729 10722 10715 10708 10700 10694 10690 10686 10682 10679 10676 10675 10675 10674 10674 10674 10674 10674 10675 10677 10677 10678 10678 10680 10684 10688 10691 10693 10698 10704 10712 10721 10730 10738 10744 10750 10758 10768 10779 10789 10794 10799 10806 10813 10819 10827 10836 10846 10853 10855 10859 10868 10875 10881 10887 10894 10899 10905 10911 10916 10921 10926 10931 10936 10940 10944 10947 10950 10952 10956 10963 10968 10973 10975 10976 10979 10982 10986 10989 10991 10995 10999 11002
10760 10754 10748 10740 10732 10725 10718 10712 10705 10697 10690 10685 10682 10679 10676 10674 10673 10672 10672 10672 10673 10673 10673 10674 10676 10676 10676 10677 10679 10682 10684 10688 10691 10696 10702 10710 10719 10727 10734 10741 10747 10756 10767 10776 10782 10785 10790 10799 10805 10811 10820 10831 10838 10843 10846 10853 10862 10869 10873 10880 10887 10892 10898 10904 10910 10915 10921 10926 10931 10935 10938 10940 10943 10947 10952 10958 10964 10967 10969 10971 10975 10979 10983 10985 10988 10992 10996 10999
10756 10750 10743 10736 10728 10721 10714 10708 10703 10695 10688 10683 10680 10676 10674 10672 10670 10670 10670 10670 10671 10671 10672 10673 10674 10675 10676 10677 10677 10679 10681 10685 10689 10694 10699 10706 10714 10722 10731 10737 10745 10754 10762 10768 10773 10777 10784 10794 10802 10809 10816 10822 10826 10832 10839 10847 10855 10860 10866 10873 10880 10885 10891 10898 10905 10909 10915 10920 10924 10927 10931 10934 10938 10943 10948 10953 10959 10963 10966 10968 10972 10975 10978 10981 10985 10989 10994 10998
10752 10746 10739 10732 10725 10718 10710 10703 10697 10693 10687 10681 10676 10673 10671 10669 10668 10667 10667 10668 10669 10669 10671 10672 10672 10674 10675 10675 10675 10677 10680 10683 10687 10691 10697 10703 10711 10721 10728 10734 10742 10750 10756 10761 10770 10777 10785 10794 10801 10806 10811 10816 10820 10825 10833 10842 10851 10857 10864 10871 10876 10881 10886 10891 10896 10901 10907 10912 10916 10920 10924 10929 10933 10939 10944 10948 10954 10960 10964 10966 10968 10971 10974 10978 10983 10988 10992 10995
10749 10743 10736 10729 10722 10714 10707 10699 10692 10688 10684 10678 10673 10670 10668 10666 10665 10664 10664 10665 10666 10667 10668 10670 10671 10672 10673 10674 10674 10677 10679 10682 10685 10690 10695 10701 10708 10715 10723 10730 10737 10745 10751 10759 10768 10773 10780 10790 10797 10800 10804 10809 10815 10823 10834 10844 10851 10855 10859 10864 10869 10874 10880 10885 10889 10893 10899 10905 10909 10913 10918 10923 10928 10934 10938 10942 10948 10955 10960 10962 10964 10967 10971 10976 10980 10985 10988 10990
10746 10740 10733 10726 10719 10711 10704 10697 10689 10682 10678 10674 10669 10666 10665 10664 10662 10661 10661 10662 10663 10664 10666 10668 10670 10671 10672 10672 10674 10676 10678 10680 10683 10687 10693 10698 10704 10711 10718 10725 10733 10741 10748 10755 10761 10766 10775 10785 10791 10794 10797 10804 10812 10822 10831 10838 10843 10846 10851 10857 10863 10867 10873 10879 10883 10888 10894 10899 10903 10908 10913 10918 10924 10930 10934 10938 10943 10949 10954 10958 10959 10963 10969 10973 10975 10979 10982 10984
10742 10735 10728 10722 10715 10707 10700 10694 10687 10679 10673 10670 10666 10663 10661 10660 10659 10659 10659 10659 10660 10662 10664 10666 10667 10668 10670 10671 10672 10674 10676 10678 10681 10684 10688 10693 10699 10706 10713 10720 10728 10736 10743 10750 10758 10765 10773 10780 10784 10786 10791 10799 10808 10814 10820 10826 10832 10837 10843 10849 10854 10859 10866 10871 10876 10883 10889 10893 10897 10903 10908 10914 10920 10925 10930 10934 10939 10943 10949 10954 10955 10958 10963 10967 10970 10974 10976 10978
10739 10732 10724 10717 10711 10704 10697 10690 10684 10677 10672 10667 10663 10660 10658 10657 10657 10656 10656 10657 10658 10659 10661 10663 10664 10666 10668 10669 10671 10673 10674 10676 10678 10680 10684 10688 10694 10701 10707 10714 10722 10730 10737 10746 10754 10763 10769 10775 10779 10782 10787 10794 10800 10805 10812 10819 10824 10829 10834 10839 10846 10854 10863 10867 10871 10878 10883 10887 10891 10898 10905 10909 10913 10920 10926 10932 10936 10939 10944 10950 10951 10953 10957 10962 10965 10969 10972 10973
10735 10729 10722 10715 10708 10701 10694 10687 10680 10674 10669 10664 10660 10656 10655 10654 10653 10653 10653 10654 10655 10656 10658 10659 10661 10663 10665 10667 10669 10671 10673 10674 10676 10679 10682 10686 10691 10696 10702 10707 10715 10722 10731 10740 10749 10757 10762 10767 10772 10776 10781 10788 10795 10802 10808 10814 10818 10822 10827 10835 10843 10850 10853 10856 10862 10868 10872 10877 10883 10890 10898 10902 10906 10915 10921 10925 10929 10933 10938 10943 10945 10947 10952 10956 10959 10963 10966 10969
10732 10725 10718 10712 10705 10698 10691 10684 10677 10671 10666 10661 10656 10653 10651 10651 10651 10650 10651 10652 10652 10654 10655 10656 10658 10661 10663 10665 10667 10669 10671 10673 10674 10677 10680 10683 10687 10691 10696 10701 10707 10714 10722 10732 10742 10750 10755 10761 10767 10772 10778 10786 10794 10802 10807 10812 10815 10819 10826 10835 10841 10844 10845 10850 10856 10858 10862 10868 10875 10882 10889 10894 10902 10911 10915 10918 10922 10926 10930 10935 10939 10941 10945 10951 10954 10957 10960 10963
10729 10723 10715 10709 10703 10696 10688 10681 10674 10668 10663 10658 10654 10651 10649 10648 10648 10648 10648 10649 10650 10651 10652 10654 10656 10658 10661 10663 10665 10666 10668 10670 10672 10674 10677 10680 10683 10687 10691 10696 10702 10708 10715 10725 10735 10741 10747 10753 10761 10768 10776 10783 10791 10799 10804 10808 10812 10817 10825 10832 10836 10837 10841 10847 10850 10851 10857 10865 10871 10876 10883 10891 10901 10907 10907 10910 10915 10918 10922 10928 10932 10935 10939 10944 10949 10952 10954 10956
10726 10721 10714 10707 10700 10693 10685 10678 10671 10665 10660 10656 10652 10649 10646 10645 10645 10645 10645 10646 10647 10648 10649 10651 10654 10656 10658 10660 10662 10664 10666 10668 10670 10672 10674 10676 10680 10684 10688 10693 10699 10705 10712 10720 10726 10732 10738 10746 10755 10764 10771 10777 10784 10792 10797 10801 10805 10811 10818 10822 10824 10827 10832 10838 10840 10843 10851 10859 10864 10869 10877 10889 10898 10898 10895 10899 10905 10909 10914 10920 10925 10929 10932 10937 10942 10946 10948 10950
10723 10717 10711 10704 10697 10690 10682 10675 10669 10663 10657 10653 10649 10647 10644 10643 10642 10642 10643 10644 10644 10645 10647 10649 10651 10653 10655 10657 10659 10661 10663 10665 10667 10669 10671 10674 10677 10681 10686 10692 10698 10704 10710 10716 10720 10724 10730 10740 10750 10757 10761 10765 10773 10781 10786 10791 10795 10799 10805 10810 10814 10819 10824 10829 10832 10837 10846 10853 10857 10865 10875 10885 10889 10887 10887 10892 10896 10901 10907 10912 10916 10921 10925 10929 10934 10939 10943 10945